Weather History for Indianapolis, IN

Change the Weather History Date:

Wednesday, February 20, 2013

  Actual Average Record
Temperature  
Mean Temperature 19 °F 34 °F  
Max Temperature 27 °F 42 °F 67 °F (1983)
Min Temperature 11 °F 25 °F -8 °F (1885)
Degree Days  
Heating Degree Days 46 32  
Month to date heating degree days 686 682  
Since 1 July heating degree days 3750 3903  
Cooling Degree Days 0 0  
Month to date cooling degree days 0 0  
Year to date cooling degree days 0 0  
Moisture  
Dew Point 9 °F    
Average Humidity 65    
Maximum Humidity 80    
Minimum Humidity 50    
Precipitation  
Precipitation T in 0.08 in 3.02 in (1882)
Month to date precipitation 0.56 1.63  
Year to date precipitation 6.07 4.29  
Snow  
Snow T in 0.20 in 1.70 in (1927)
Month to date snowfall 1.5 5.0  
Since 1 July snowfall 18.9 21.6  
Snow Depth 0.00 in    
Sea Level Pressure  
Sea Level Pressure 30.28 in    
Wind  
Wind Speed 12 mph (NW)    
Max Wind Speed 22 mph    
Max Gust Speed 32 mph    
Visibility 10 miles    
Events Snow    
T = Trace of Precipitation, MM = Missing Value Source: NWS Daily Summary

Daily Weather History Graph

Daily Weather History Graph

Search for Another Location

Airport:

Trip Planner

Search our weather history database for the weather conditions in past years. The results will help you decide how hot, cold, wet, or windy it might be!

Date:

Astronomy

Feb. 20, 2013 Rise Set
Actual Time 7:30 AM EST 6:27 PM EST
Civil Twilight 7:03 AM EST 6:55 PM EST
Nautical Twilight 6:32 AM EST 7:26 PM EST
Astronomical Twilight 6:00 AM EST 7:57 PM EST
Moon 1:49 PM EST (2/20) 3:50 AM EST (2/20)
Length of Visible Light 11h 51m
Length of Day
10h 56m
Waxing Gibbous, 76% of the Moon is Illuminated
Feb 20
Waxing Gibbous
Feb 25
Full
Mar 4
Last Quarter
Mar 11
New
Mar 19
First Quarter

Hourly Weather History & Observations

Time (EST) Temp. Windchill Dew Point Humidity Pressure Visibility Wind Dir Wind Speed Gust Speed Precip Events Conditions
12:54 AM 21.0 °F 5.0 °F 10.0 °F 63% 30.18 in 9.0 mi WNW 21.9 mph 27.6 mph 0.00 in Snow Light Snow
1:42 AM 21.2 °F 8.3 °F 10.4 °F 63% 30.15 in 9.0 mi WNW 13.8 mph - 0.00 in Snow Light Snow
1:54 AM 19.9 °F 4.8 °F 10.9 °F 68% 30.19 in 9.0 mi West 18.4 mph 23.0 mph 0.00 in Snow Light Snow
2:54 AM 18.0 °F 4.2 °F 10.9 °F 74% 30.20 in 9.0 mi NW 13.8 mph - 0.00 in Snow Light Snow
3:54 AM 18.0 °F 2.6 °F 9.0 °F 68% 30.23 in 9.0 mi WNW 17.3 mph - 0.00 in Snow Light Snow
4:54 AM 16.0 °F 1.1 °F 10.0 °F 77% 30.24 in 9.0 mi NW 15.0 mph - 0.00 in Snow Light Snow
5:54 AM 14.0 °F -2.0 °F 6.1 °F 71% 30.26 in 9.0 mi NW 16.1 mph - 0.00 in Snow Light Snow
6:54 AM 12.0 °F -2.0 °F 6.1 °F 77% 30.27 in 9.0 mi WNW 11.5 mph - 0.00 in Snow Light Snow
7:15 AM 10.4 °F -1.5 °F 5.0 °F 79% 30.23 in 9.0 mi NW 8.1 mph - 0.00 in   Scattered Clouds
7:30 AM 12.2 °F -3.1 °F 5.0 °F 73% 30.23 in 10.0 mi NW 13.8 mph - 0.00 in Snow Light Snow
7:43 AM 10.4 °F -3.3 °F 3.2 °F 73% 30.24 in 9.0 mi NW 10.4 mph - 0.00 in   Scattered Clouds
7:54 AM 10.9 °F -1.8 °F 3.9 °F 73% 30.29 in 10.0 mi NW 9.2 mph - 0.00 in   Partly Cloudy
8:54 AM 12.9 °F -0.9 °F 5.0 °F 71% 30.33 in 10.0 mi WNW 11.5 mph - N/A   Scattered Clouds
9:54 AM 15.1 °F 3.3 °F 5.0 °F 64% 30.32 in 10.0 mi WNW 9.2 mph - N/A   Scattered Clouds
10:54 AM 17.1 °F 6.6 °F 5.0 °F 59% 30.34 in 10.0 mi NW 8.1 mph - N/A   Scattered Clouds
11:54 AM 19.9 °F 10.1 °F 7.0 °F 57% 30.35 in 10.0 mi West 8.1 mph - N/A   Scattered Clouds
12:54 PM 23.0 °F 11.7 °F 8.1 °F 53% 30.34 in 10.0 mi WNW 11.5 mph - N/A   Scattered Clouds
1:54 PM 25.0 °F 17.1 °F 9.0 °F 51% 30.32 in 10.0 mi WNW 6.9 mph - N/A   Scattered Clouds
2:54 PM 26.1 °F 15.0 °F 10.0 °F 51% 30.32 in 10.0 mi West 12.7 mph - N/A   Mostly Cloudy
3:54 PM 26.1 °F 15.6 °F 10.9 °F 53% 30.32 in 10.0 mi WNW 11.5 mph 18.4 mph N/A   Mostly Cloudy
4:54 PM 26.6 °F 16.8 °F 12.2 °F 55% 30.27 in 10.0 mi NW 10.4 mph - N/A   Mostly Cloudy
5:54 PM 24.1 °F 13.7 °F 12.9 °F 62% 30.32 in 10.0 mi NNW 10.4 mph - N/A   Overcast
6:54 PM 24.1 °F 14.4 °F 15.1 °F 69% 30.34 in 10.0 mi NNW 9.2 mph - N/A   Overcast
7:54 PM 24.1 °F 13.7 °F 15.1 °F 69% 30.33 in 10.0 mi NNW 10.4 mph - N/A   Overcast
8:54 PM 23.0 °F 14.7 °F 14.0 °F 68% 30.33 in 10.0 mi NNW 6.9 mph - N/A   Overcast
9:54 PM 23.0 °F 14.7 °F 14.0 °F 68% 30.33 in 10.0 mi NNE 6.9 mph - N/A   Overcast
10:54 PM 21.0 °F 12.4 °F 14.0 °F 74% 30.33 in 10.0 mi NNE 6.9 mph - N/A   Mostly Cloudy
11:54 PM 19.0 °F 13.9 °F 12.9 °F 77% 30.34 in 10.0 mi NNE 3.5 mph - N/A   Mostly Cloudy